| time (UTC) | temp F | wind direction | speed MPH | gust MPH | rain 1hr in | rain 24hr in | rain mn in | humidity % | barometer mb |
| 20260508003056 | 42 | 0.0 | 0.0 | 0.00 | 0.04 | 0.01 | 53 | 1006.9 | |
| 20260508001557 | 43 | 0.0 | 0.0 | 0.00 | 0.04 | 0.01 | 51 | 1006.8 | |
| 20260508000055 | 43 | 0.0 | 0.0 | 0.00 | 0.04 | 0.01 | 51 | 1006.8 | |
| 20260507234555 | 43 | 0.0 | 0.0 | 0.00 | 0.06 | 0.01 | 52 | 1006.6 | |
| 20260507233054 | 44 | 0.0 | 0.0 | 0.00 | 0.06 | 0.01 | 50 | 1006.5 | |
| 20260507231557 | 44 | 0.0 | 0.0 | 0.00 | 0.06 | 0.01 | 51 | 1006.4 | |
| 20260507230110 | 45 | 0.0 | 0.0 | 0.00 | 0.06 | 0.01 | 49 | 1006.4 | |
| 20260507224556 | 46 | 0.0 | 0.0 | 0.00 | 0.09 | 0.01 | 45 | 1006.5 | |
| 20260507223053 | 47 | 0.0 | 0.0 | 0.00 | 0.09 | 0.01 | 46 | 1006.4 | |
| 20260507221600 | 47 | 0.0 | 0.0 | 0.00 | 0.09 | 0.01 | 49 | 1006.5 | |
| 20260507220057 | 47 | 0.0 | 0.0 | 0.00 | 0.09 | 0.01 | 47 | 1006.4 | |
| 20260507214556 | 47 | 0.0 | 0.0 | 0.00 | 0.12 | 0.01 | 48 | 1006.3 | |
| 20260507213105 | 47 | 0.0 | 0.0 | 0.00 | 0.12 | 0.01 | 47 | 1006.3 | |
| 20260507211557 | 47 | 0.0 | 0.0 | 0.00 | 0.12 | 0.01 | 48 | 1006.2 | |
| 20260507210057 | 48 | 0.0 | 0.0 | 0.00 | 0.12 | 0.01 | 48 | 1006.2 | |
| 20260507204600 | 47 | 0.0 | 0.0 | 0.00 | 0.18 | 0.01 | 49 | 1006.1 | |
| 20260507203055 | 48 | 0.0 | 0.0 | 0.00 | 0.18 | 0.01 | 50 | 1006.2 | |
| 20260507201604 | 47 | 0.0 | 0.0 | 0.00 | 0.18 | 0.01 | 50 | 1006.2 | |
| 20260507200056 | 47 | 0.0 | 0.0 | 0.00 | 0.18 | 0.01 | 51 | 1006.4 | |
| 20260507194603 | 49 | 0.0 | 0.0 | 0.00 | 0.23 | 0.01 | 51 | 1006.4 | |
| 20260507193057 | 47 | 0.0 | 0.0 | 0.00 | 0.23 | 0.01 | 51 | 1006.5 | |
| 20260507191615 | 47 | 0.0 | 0.0 | 0.00 | 0.23 | 0.01 | 50 | 1006.6 | |
| 20260507190057 | 48 | 0.0 | 0.0 | 0.00 | 0.23 | 0.01 | 48 | 1006.8 | |
| 20260507184606 | 51 | 0.0 | 0.0 | 0.00 | 0.33 | 0.01 | 48 | 1007.0 | |
| 20260507183104 | 49 | 0.0 | 0.0 | 0.00 | 0.33 | 0.01 | 46 | 1006.9 | |
| 20260507181556 | 49 | 0.0 | 0.0 | 0.00 | 0.33 | 0.01 | 48 | 1007.2 | |
| 20260507180100 | 49 | 0.0 | 0.0 | 0.00 | 0.33 | 0.01 | 47 | 1007.3 | |
| 20260507174555 | 49 | 0.0 | 0.0 | 0.00 | 0.49 | 0.01 | 49 | 1007.3 | |
| 20260507173058 | 50 | 0.0 | 0.0 | 0.00 | 0.49 | 0.01 | 44 | 1007.2 | |
| 20260507171557 | 50 | 0.0 | 0.0 | 0.00 | 0.49 | 0.01 | 43 | 1007.2 | |
| 20260507170059 | 50 | 0.0 | 0.0 | 0.00 | 0.49 | 0.01 | 47 | 1007.2 | |
| 20260507164624 | 49 | 0.0 | 0.0 | 0.00 | 0.61 | 0.01 | 48 | 1007.4 | |
| 20260507163054 | 49 | 0.0 | 0.0 | 0.00 | 0.61 | 0.01 | 48 | 1007.7 | |
| 20260507161601 | 48 | 0.0 | 0.0 | 0.00 | 0.61 | 0.01 | 50 | 1007.7 | |
| 20260507160056 | 48 | 0.0 | 0.0 | 0.00 | 0.61 | 0.01 | 52 | 1007.9 | |
| 20260507154553 | 47 | 0.0 | 0.0 | 0.00 | 0.65 | 0.01 | 54 | 1007.9 | |
| 20260507153054 | 48 | 0.0 | 0.0 | 0.00 | 0.65 | 0.01 | 55 | 1008.1 | |
| 20260507151554 | 47 | 0.0 | 0.0 | 0.00 | 0.65 | 0.01 | 60 | 1008.1 | |
| 20260507150057 | 46 | 0.0 | 0.0 | 0.00 | 0.65 | 0.01 | 59 | 1008.1 | |
| 20260507144600 | 46 | 0.0 | 0.0 | 0.00 | 0.66 | 0.01 | 53 | 1008.1 | |
| 20260507143109 | 45 | 0.0 | 0.0 | 0.00 | 0.66 | 0.01 | 62 | 1008.1 | |
| 20260507141613 | 45 | 0.0 | 0.0 | 0.00 | 0.66 | 0.01 | 60 | 1008.2 | |
| 20260507140054 | 45 | 0.0 | 0.0 | 0.00 | 0.66 | 0.01 | 59 | 1008.0 | |
| 20260507134556 | 45 | 0.0 | 0.0 | 0.00 | 0.66 | 0.01 | 61 | 1007.9 | |
| 20260507133104 | 44 | 0.0 | 0.0 | 0.00 | 0.66 | 0.01 | 64 | 1007.8 | |
| 20260507131613 | 44 | 0.0 | 0.0 | 0.00 | 0.66 | 0.01 | 66 | 1007.8 | |
| 20260507130100 | 43 | 0.0 | 0.0 | 0.00 | 0.66 | 0.01 | 64 | 1007.7 | |
| 20260507124557 | 43 | 0.0 | 0.0 | 0.01 | 0.66 | 0.01 | 66 | 1007.6 | |
| 20260507123111 | 43 | 0.0 | 0.0 | 0.01 | 0.66 | 0.01 | 66 | 1007.5 | |
| 20260507121557 | 42 | 0.0 | 0.0 | 0.01 | 0.66 | 0.01 | 69 | 1007.6 | |
| 20260507120057 | 42 | 0.0 | 0.0 | 0.01 | 0.66 | 0.01 | 70 | 1007.5 | |
| 20260507114559 | 41 | 0.0 | 0.0 | 0.00 | 0.65 | 0.00 | 74 | 1007.3 | |
| 20260507113058 | 39 | 0.0 | 0.0 | 0.00 | 0.65 | 0.00 | 79 | 1007.1 | |
| 20260507111557 | 38 | 0.0 | 0.0 | 0.00 | 0.65 | 0.00 | 86 | 1007.4 | |
| 20260507110057 | 39 | 0.0 | 0.0 | 0.00 | 0.65 | 0.00 | 87 | 1007.3 | |
| 20260507104604 | 39 | 0.0 | 0.0 | 0.00 | 0.65 | 0.00 | 87 | 1007.2 | |
| 20260507103058 | 39 | 0.0 | 0.0 | 0.00 | 0.65 | 0.00 | 90 | 1006.8 | |
| 20260507101553 | 39 | 0.0 | 0.0 | 0.00 | 0.65 | 0.00 | 94 | 1006.8 | |
| 20260507100100 | 39 | 0.0 | 0.0 | 0.00 | 0.65 | 0.00 | 93 | 1006.9 | |
| 20260507094554 | 39 | 0.0 | 0.0 | 0.00 | 0.65 | 0.00 | 91 | 1006.9 | |
| 20260507093054 | 39 | 0.0 | 0.0 | 0.00 | 0.65 | 0.00 | 89 | 1007.0 | |
| 20260507091557 | 39 | 0.0 | 0.0 | 0.00 | 0.65 | 0.00 | 89 | 1007.1 | |
| 20260507090100 | 39 | 0.0 | 0.0 | 0.00 | 0.65 | 0.00 | 89 | 1007.1 | |
| 20260507084555 | 39 | 0.0 | 0.0 | 0.00 | 0.65 | 0.00 | 89 | 1007.4 | |
| 20260507083057 | 40 | 0.0 | 0.0 | 0.00 | 0.65 | 0.00 | 91 | 1007.5 | |
| 20260507081557 | 40 | 0.0 | 0.0 | 0.00 | 0.65 | 0.00 | 90 | 1007.1 | |
| 20260507080112 | 40 | 0.0 | 0.0 | 0.00 | 0.65 | 0.00 | 90 | 1006.9 | |
| 20260507074558 | 40 | 0.0 | 0.0 | 0.00 | 0.65 | 0.00 | 91 | 1007.1 | |
| 20260507073054 | 40 | 0.0 | 0.0 | 0.00 | 0.65 | 0.00 | 90 | 1007.3 | |
| 20260507071554 | 40 | 0.0 | 0.0 | 0.00 | 0.65 | 0.00 | 91 | 1007.1 | |
| 20260507070104 | 40 | 0.0 | 0.0 | 0.00 | 0.65 | 0.00 | 92 | 1007.1 | |
| 20260507064634 | 40 | 0.0 | 0.0 | 0.00 | 0.65 | 0.00 | 92 | 1007.3 | |
| 20260507063109 | 40 | 0.0 | 0.0 | 0.00 | 0.65 | 0.00 | 92 | 1006.6 | |
| 20260507061555 | 40 | 0.0 | 0.0 | 0.00 | 0.65 | 0.00 | 91 | 1006.7 | |
| 20260507060111 | 40 | 0.0 | 0.0 | 0.00 | 0.65 | 0.00 | 91 | 1006.8 | |
| 20260507054602 | 40 | 0.0 | 0.0 | 0.00 | 0.65 | 0.00 | 90 | 1007.4 | |
| 20260507053107 | 40 | 0.0 | 0.0 | 0.00 | 0.65 | 0.00 | 91 | 1007.2 | |
| 20260507051605 | 40 | 0.0 | 0.0 | 0.00 | 0.65 | 0.00 | 91 | 1007.4 | |
| 20260507050057 | 41 | 0.0 | 0.0 | 0.00 | 0.65 | 0.00 | 91 | 1007.6 | |
| 20260507044557 | 41 | 0.0 | 0.0 | 0.00 | 0.65 | 0.00 | 91 | 1007.4 | |
| 20260507043058 | 41 | 0.0 | 0.0 | 0.00 | 0.65 | 0.00 | 91 | 1007.2 | |
| 20260507041554 | 41 | 0.0 | 0.0 | 0.00 | 0.65 | 0.00 | 92 | 1007.1 | |
| 20260507040054 | 41 | 0.0 | 0.0 | 0.00 | 0.65 | 0.00 | 92 | 1007.0 | |
| 20260507034556 | 42 | 0.0 | 0.0 | 0.00 | 0.65 | 0.65 | 92 | 1007.3 | |
| 20260507033055 | 42 | 0.0 | 0.0 | 0.00 | 0.65 | 0.65 | 91 | 1007.1 | |
| 20260507031556 | 42 | 0.0 | 0.0 | 0.00 | 0.65 | 0.65 | 92 | 1007.2 | |
| 20260507030056 | 43 | 0.0 | 0.0 | 0.00 | 0.65 | 0.65 | 92 | 1007.0 | |
| 20260507024558 | 43 | 0.0 | 0.0 | 0.00 | 0.66 | 0.65 | 92 | 1007.3 | |
| 20260507023056 | 44 | 0.0 | 0.0 | 0.01 | 0.66 | 0.65 | 91 | 1007.1 | |
| 20260507021557 | 44 | 0.0 | 0.0 | 0.01 | 0.66 | 0.65 | 92 | 1006.9 | |
| 20260507020115 | 44 | 0.0 | 0.0 | 0.01 | 0.66 | 0.65 | 92 | 1007.0 | |
| 20260507014600 | 45 | 0.0 | 0.0 | 0.02 | 0.66 | 0.65 | 92 | 1007.3 | |
| 20260507013055 | 45 | 0.0 | 0.0 | 0.01 | 0.65 | 0.64 | 92 | 1006.9 | |
| 20260507011556 | 46 | 0.0 | 0.0 | 0.01 | 0.65 | 0.64 | 92 | 1006.8 | |
| 20260507010111 | 46 | 0.0 | 0.0 | 0.02 | 0.65 | 0.64 | 92 | 1006.6 | |
| 20260507004557 | 47 | 0.0 | 0.0 | 0.01 | 0.64 | 0.63 | 91 | 1006.4 |